Regional Weather Roundup
Issued by NWS

Home | Current Version | Previous Version | Graphics & Text | Print | Product List | Glossary On
Versions: 1 2 3 4 5 6 7 8 9 10 11 12 13 14 15 16 17 18 19 20 21 22 23 24 25 26 27 28 29 30 31 32 33 34 35 36 37 38 39 40 41 42 43 44 45 46 47 48 49 50
000
ASUS45 KSLC 262010
RWRUT

UTAH REGIONAL WEATHER ROUNDUP
NATIONAL WEATHER SERVICE SALT LAKE CITY UT
100 PM MST WED NOV 26 2014

UTZ001>011-023>025-262100-

NORTHERN UTAH

CITY           SKY/WX    TMP DP  RH WIND       PRES   REMARKS
BRIGHAM CITY   SUNNY     55  31  40 S15       30.36F
HILL AFB       SUNNY     55  31  39 SW7       30.38F
LOGAN          SUNNY     55  32  41 NE3       30.34F
OGDEN          SUNNY     55  30  38 SW6       30.37F
PROVO AIRPORT  SUNNY     46  30  53 VRB5      30.41F
SALT LAKE CITY MOSUNNY   57  30  35 VRB3      30.37F
VERNAL         SUNNY     50  29  44 CALM      30.31F
WENDOVER       SUNNY     52  34  50 E8        30.37F
HEBER CITY     SUNNY     50  32  50 CALM      30.38F
WEST JORDAN    SUNNY     55  36  47 S12       30.39F

$$

UTZ012>022-026-027-262100-

SOUTHERN/CENTRAL UTAH

CITY           SKY/WX    TMP DP  RH WIND       PRES   REMARKS
BLANDING       SUNNY     52  19  26 S8        30.43F
BRYCE CANYON   SUNNY     50  24  36 N5        30.46F
CEDAR CITY     SUNNY     58  26  29 VRB3      30.41F
DELTA          SUNNY     53  26  35 S8        30.41F
MILFORD        SUNNY     57  27  31 S13       30.41F
MOAB/CYNLANDS  SUNNY     51  18  27 NW8       30.36F
PRICE          SUNNY     50  25  37 S3        30.38F
ST GEORGE      CLEAR     52  14  22 CALM      30.41F
KANAB          SUNNY     55  18  22 S6        30.43F

$$

REGIONAL REPORTS     COLORADO/ARIZONA

CITY           SKY/WX    TMP DP  RH WIND       PRES   REMARKS
CRAIG, CO      SUNNY     49  30  48 W7        30.30F
GRAND JUNCTION SUNNY     48  21  34 NW5       30.37F
RIFLE          SUNNY     39  26  59 CALM      30.38F
MONTROSE       SUNNY     53  26  35 CALM      30.37F
CORTEZ         SUNNY     57  24  28 N16G26    30.36F
PAGE, AZ       SUNNY     54  15  21 CALM      30.39F
GRAND CANYON   SUNNY     60  18  19 CALM      30.45F
KINGMAN        SUNNY     64  13  13 N5        30.36F
FLAGSTAFF      SUNNY     60  15  17 E10       30.44F

$$

REGIONAL REPORTS    NEVADA/IDAHO/WYOMING

CITY           SKY/WX    TMP DP  RH WIND       PRES   REMARKS
LAS VEGAS, NV  SUNNY     64  14  14 CALM      30.32F
ELY            SUNNY     59  32  36 CALM      30.45F
ELKO           SUNNY     54  33  45 CALM      30.39F
POCATELLO, ID  MOSUNNY   53  36  52 SW20      30.32F
BURLEY         SUNNY     56  34  43 W9        30.31F
EVANSTON, WY   MOSUNNY   44  29  55 SW14      30.36R
ROCK SPRINGS   MOSUNNY   44  30  57 W28G37    30.27S

$$


USA.gov is the U.S. government's official web portal to all federal, state and local government web resources and services.